Regional Weather Roundup
Issued by NWS

Home | Current Version | Previous Version | Graphics & Text | Print | Product List | Glossary On
Versions: 1 2 3 4 5 6 7 8 9 10 11 12 13 14 15 16 17 18 19 20 21 22 23 24 25 26 27 28 29 30 31 32 33 34 35 36 37 38 39 40 41 42 43 44 45 46 47 48 49 50
000
ASUS43 KLOT 020606
RWRIL

ILLINOIS REGIONAL WEATHER ROUNDUP
NATIONAL WEATHER SERVICE CHICAGO/ROMEOVILLE IL
100 AM CDT SAT AUG 02 2014

NOTE: "FAIR" INDICATES FEW OR NO CLOUDS BELOW 12,000 FEET WITH NO
SIGNIFICANT WEATHER AND/OR OBSTRUCTIONS TO VISIBILITY.

* THESE STATIONS ARE NOT UNDER NWS QUALITY CONTROL. THEY ALSO MAY NOT
  REPORT WEATHER SUCH AS PRECIPITATION OR FOG.

ILZ001-002-007-009-015-016-024-020700-
NORTHWEST ILLINOIS

CITY           SKY/WX    TMP DP  RH WIND       PRES   REMARKS
MOLINE         CLEAR     63  60  90 CALM      30.10F
6HR MIN TEMP:  63; 6HR MAX TEMP:  76; 6HR PCP:  0.10;

STERLING*      CLOUDY    63  59  88 W3        30.10F
SAVANNA*       PTCLDY    63  56  79 SW5       30.10F
$$

ILZ003-004-008-010-011-017-018-020700-
NORTH CENTRAL ILLINOIS

CITY           SKY/WX    TMP DP  RH WIND       PRES   REMARKS
ROCKFORD       MOCLDY    61  57  87 CALM      30.10F
6HR MIN TEMP:  59; 6HR MAX TEMP:  80; 6HR PCP:  1.35;

FREEPORT*      MOCLDY    60  58  92 W3        30.12F
ROCHELLE*      CLOUDY    60  58  92 CALM      30.09S
DE KALB*       CLOUDY    58  55  89 W3        30.09S
PERU*          MOCLDY    63  58  83 W6        30.10R
$$

ILZ005-006-012>014-019>023-020700-
NORTHEAST ILLINOIS

CITY           SKY/WX    TMP DP  RH WIND       PRES   REMARKS
CHICAGO-OHARE  PTCLDY    64  53  67 SE6       30.08S
6HR MIN TEMP:  64; 6HR MAX TEMP:  74;

CHICAGO-MIDWAY MOCLDY    70  57  63 S7        30.07F
6HR MIN TEMP:  69; 6HR MAX TEMP:  75;

AURORA         CLOUDY    63  56  78 VRB5      30.09R
6HR MIN TEMP:  62; 6HR MAX TEMP:  69; 6HR PCP: TRACE;

LANSING*       MOCLDY    61  59  93 SE3       30.10F
JOLIET*        CLOUDY    62  56  82 SE3       30.09F
WAUKEGAN       CLEAR     58  55  90 CALM      30.07F
6HR MIN TEMP:  57; 6HR MAX TEMP:  74; 6HR PCP: TRACE;

DUPAGE AIRPORT MOCLDY    62  56  80 NW6       30.09R
6HR MIN TEMP:  62; 6HR MAX TEMP:  70; 6HR PCP: TRACE;

KANKAKEE*      FOG       59  58  98 CALM      30.10F VSB 3/4
WHEELING       PTCLDY    63  56  78 N5        30.09S
6HR MIN TEMP:  63; 6HR MAX TEMP:  77;

MORRIS*        CLOUDY    63  61  94 SE3       30.07F
ROMEOVILLE*    CLOUDY    62  57  85 SE6       30.08F
NORTHERLY ISL    N/A     66  62  87 S6          N/A
$$

LMZ740>746-020700-
SOUTHERN LAKE MICHIGAN

STATION/POSITION SKY/WX   TEMP    WIND        PRES    VSBY  WAVE
                          AIR SEA DIR/SP/G                  HT/PER
                          (F)     (DEG/KT/KT) (MB)    (MI)  (FT/S)
SOUTHERN BUOY              65 63   CALM  /  2 1018.9F         0
WAUKEGAN HARBOR            66      CALM  /  3   N/A
HARRISON CRIB              68     160/ 10/ 11   N/A
BURNHAM HARBOR             66     120/  3/  6   N/A
CALUMET HARBOR             68     160/  3/  4 1017.5F
BURNS HARBOR               68     190/  6/  6   N/A
MICHIGAN CITY              65     160/  4/  5   N/A
MICHIGAN CITY 6N           68 69  230/  4/  6   N/A           0
ST. JOSEPH                 69 69  140/  4/  6   N/A           0
$$

ILZ025>027-034>036-040-047-049-050-058-095>099-020700-
WEST-CENTRAL ILLINOIS

CITY           SKY/WX    TMP DP  RH WIND       PRES   REMARKS
QUINCY         PTCLDY    63  61  93 SE3       30.10F
GALESBURG*     CLEAR     59  57  95 CALM      30.10F
MACOMB*        PTCLDY    57  57 100 CALM      30.12F FOG
JACKSONVILLE*  MOCLDY    63  60  91 E5        30.11F
PITTSFIELD*    PTCLDY    64  62  93 E5        30.13S FOG
$$

ILZ028>032-037-038-041>044-048-051>054-059>061-020700-
CENTRAL ILLINOIS

CITY           SKY/WX    TMP DP  RH WIND       PRES   REMARKS
PONTIAC        PTCLDY    61  61 100 S3        30.08F FOG
DECATUR        PTCLDY    60  58  92 E3        30.11F
PEORIA         MOCLDY    66  61  84 CALM      30.11F
6HR MIN TEMP:  65; 6HR MAX TEMP:  68;

LACON*         MOCLDY    61  58  91 NW3       30.09S
LINCOLN*       MOCLDY    63  60  93 CALM      30.08F FOG
SPRINGFIELD    MOCLDY    64  61  90 E3        30.11F
6HR MIN TEMP:  63; 6HR MAX TEMP:  72;

TAYLORVILLE      N/A     55  55 100 CALM      30.12S FOG
$$

ILZ033-039-045-046-055>057-062-063-020700-
EAST-CENTRAL ILLINOIS

CITY           SKY/WX    TMP DP  RH WIND       PRES   REMARKS
CHAMPAIGN      MOCLDY    64  61  90 CALM      30.11F
DANVILLE*      CLOUDY    62  62  98 CALM      30.09F FOG
RANTOUL*       MOCLDY    64  58  80 CALM      30.11F
MATTOON          N/A     62  61  96 N3        30.10F
PARIS*         CLOUDY    64  63  94 CALM      30.11F
$$

ILZ079-100>102-020700-
SOUTHWEST ILLINOIS

CITY           SKY/WX    TMP DP  RH WIND       PRES   REMARKS
ALTON          CLEAR     61  61 100 CALM      30.10F FOG
BELLEVILLE     PTCLDY    64  63  99 W1        30.08F
CAHOKIA*       PTCLDY    63  62  97 S3        30.09S FOG
SPARTA*        MOCLDY    64  63  94 CALM      30.10S
$$

ILZ064>066-069>071-074>076-080>082-084>086-088>090-092>094-020700-
SOUTH-CENTRAL ILLINOIS

CITY           SKY/WX    TMP DP  RH WIND       PRES   REMARKS
CARBONDALE     MOCLDY    65  62  90 S5        30.08S
6HR MIN TEMP:  65; 6HR MAX TEMP:  79; 6HR PCP: TRACE;

CAIRO*         MOCLDY    73  66  80 N3        30.06F
EFFINGHAM*     RAIN      60  58  91 CALM      30.10S
MARION         MOCLDY    68  64  88 CALM      30.08F
MT. VERNON     CLOUDY    64  59  82 CALM      30.09S
CENTRALIA*     PTCLDY    62  60  93 CALM      30.09S
SALEM*         PTCLDY    65  64  95 NE5       30.10S FOG
METROPOLIS*    MOCLDY    70  61  72 CALM      30.06S
$$

ILZ067-068-072-073-078-083-087-091-020700-
SOUTHEAST ILLINOIS

CITY           SKY/WX    TMP DP  RH WIND       PRES   REMARKS
LAWRENCEVILLE  CLOUDY    68  63  84 NE3       30.08F
FLORA*         CLOUDY    63  61  94 W6        30.12R
FAIRFIELD*     CLOUDY    66  64  94 NW5       30.10S THUNDER
HARRISBURG*    CLOUDY    67  65  94 CALM      30.09S
ROBINSON*      CLOUDY    67  66  97 CALM      30.10S
CARMI*         CLOUDY    68  64  88 NW5       30.07F
$$

ABBREVIATIONS USED IN REMARKS
   TC - TEMPERATURE IN CELSIUS
  WCI - WIND CHILL INDEX
   HX - HEAT INDEX
  VSB - VISIBILITY
$$



USA.gov is the U.S. government's official web portal to all federal, state and local government web resources and services.